This demonstration page uses our WeatherBlox Daily Observations layout. Learn more.

Left ArrowRight Arrow

34.74481, -87.66753

Hourly Observations for August 17, 2015

Temp ( °F °C ) Dew Point ( °F °C ) Humidity (%) Winds ( mph kmh ) Pressure ( in mb ) Visibility ( mi km ) Precip ( " mm )
12:53 am 00:53 Clear 73 22.8 69 20.6 87 87 E 5 7 30.08 1019 10 16 0.00 0.00
1:53 am 01:53 Mostly Clear 73 22.8 69 20.6 87 87 ENE 3 6 30.07 1018 9 14 0.00 0.00
2:53 am 02:53 Clear 73 22.8 69 20.6 87 87 ENE 3 6 30.06 1018 10 16 0.00 0.00
3:53 am 03:53 Partly Cloudy 73 22.8 69 20.6 87 87 Calm 30.07 1018 10 16 0.00 0.00
4:53 am 04:53 Mostly Cloudy 73 22.8 69 20.6 87 87 ENE 3 6 30.08 1019 9 14 0.00 0.00
5:53 am 05:53 Cloudy 72 22.2 69 20.6 91 91 Calm 30.09 1019 8 13 0.01 0.25
6:53 am 06:53 Cloudy with Light Rain 73 22.8 70 21.1 90 90 SE 3 6 30.10 1019 6 10 0.00 0.03
7:07 am 07:07 Cloudy with Mist and Fog 73 22.8 70 21.1 90 90 Calm 30.09 1019 6 10 0.00 0.03
7:53 am 07:53 Mostly Cloudy 74 23.3 70 21.1 88 88 SE 3 6 30.10 1019 8 13 0.00 0.03
8:09 am 08:09 Mostly Cloudy 74 23.3 71 21.7 91 91 ESE 5 7 30.09 1019 8 13 0.00 0.00
8:53 am 08:53 Cloudy 75 23.9 71 21.7 88 88 ESE 6 9 30.10 1019 9 14 0.00 0.00
9:53 am 09:53 Cloudy 76 24.4 71 21.7 85 85 SE 6 9 30.10 1019 9 14 0.00 0.00
10:49 am 10:49 Mostly Cloudy 79 26 72 22 79 79 SE 9 15 30.09 1019 10 16 0.00 0.00
10:53 am 10:53 Mostly Cloudy 79 26.1 70 21.1 74 74 SSE 7 11 30.09 1019 10 16 0.00 0.00
11:24 am 11:24 Partly Cloudy 79 26.1 70 21.1 74 74 S 6 9 30.06 1018 10 16 0.00 0.00
11:34 am 11:34 Mostly Cloudy 80 26.7 70 21.1 71 71 VRB 7 11 30.06 1018 10 16 0.00 0.00
11:53 am 11:53 Cloudy 81 27.2 70 21.1 69 69 VRB 5 7 30.07 1018 10 16 0.00 0.00
12:19 pm 12:19 Mostly Cloudy 80 26.7 69 20.6 69 69 VRB 3 6 30.06 1018 10 16 0.00 0.00
12:53 pm 12:53 Cloudy 82 27.8 68 20 63 63 SE 8 13 30.05 1018 10 16 0.00 0.00
1:05 pm 13:05 Mostly Cloudy 82 27.8 69 20.6 65 65 SE 8 13 30.03 1017 10 16 0.00 0.00
1:53 pm 13:53 Mostly Sunny 83 28.3 67 19.4 59 59 SSE 7 11 30.03 1017 10 16 0.00 0.00
2:53 pm 14:53 Mostly Cloudy 79 26.1 70 21.1 74 74 ESE 9 15 30.02 1017 10 16 0.00 0.00
3:53 pm 15:53 Mostly Cloudy 81 27.2 70 21.1 69 69 SE 8 13 30.01 1016 10 16 0.00 0.00
4:53 pm 16:53 Mostly Sunny 81 27.2 69 20.6 67 67 VRB 6 9 29.99 1016 10 16 0.00 0.00
5:28 pm 17:28 Mostly Cloudy 81 27.2 71 21.7 72 72 E 6 9 29.97 1015 10 16 0.00 0.00
5:53 pm 17:53 Mostly Cloudy 80 26.7 71 21.7 74 74 VRB 3 6 29.98 1015 10 16 0.00 0.00
6:00 pm 18:00 Mostly Cloudy 80 26.7 71 21.7 74 74 E 7 11 29.97 1015 10 16 0.00 0.00
6:13 pm 18:13 Partly Cloudy 80 26.7 71 21.7 74 74 E 7 11 29.97 1015 10 16 0.00 0.00
6:21 pm 18:21 Mostly Cloudy 80 26.7 71 21.7 74 74 E 8 13 29.97 1015 10 16 0.00 0.00
6:31 pm 18:31 Mostly Sunny 79 26.1 71 21.7 77 77 E 6 9 29.97 1015 10 16 0.00 0.00
6:53 pm 18:53 Sunny 79 26.1 71 21.7 77 77 ESE 5 7 29.96 1015 10 16 0.00 0.00
7:53 pm 19:53 Partly Cloudy 77 25 71 21.7 82 82 SSE 6 9 29.96 1015 10 16 0.00 0.00
8:53 pm 20:53 Clear 74 23.3 70 21.1 88 88 SE 3 6 29.98 1015 10 16 0.00 0.00
9:53 pm 21:53 Mostly Cloudy 74 23.3 71 21.7 91 91 E 3 6 30.00 1016 10 16 0.00 0.00
10:53 pm 22:53 Cloudy 74 23.3 71 21.7 91 91 VRB 3 6 30.01 1016 10 16 0.00 0.00
11:53 pm 23:53 Mostly Cloudy 74 23.3 71 21.7 91 91 ESE 3 6 30.00 1016 10 16 0.00 0.00

Powered by AerisWeather